Hourly Data Report for October 07, 2016

All times are specified in Local Standard Time (LST). Add 1 hour to adjust for Daylight Saving Time where and when it is observed.

QIKIQTARJUAQ A
NUNAVUT

67°32'48.000" N
64°01'54.000" W
5.50 m
2400577
YVM

Download Data

Hourly Data (October 2016)
Hourly Data Report for October 7, 2016
Temp Definition
°C
Dew Point Temp Definition
°C
Rel Hum Definition
%
Wind Dir Definition
10's deg

Wind Spd Definition
km/h
Visibility Definition
km
Stn Press Definition
kPa
Hmdx Definition


Wind Chill Definition


Weather Definition


TIME
00:00 Legend Double Dagger -1.2 -3.9 82 LegendMM 5 16.1 101.09   -3 LegendNANA
01:00 Legend Double Dagger -1.1 -3.9 81 12 5 16.1 101.16   -3 LegendNANA
02:00 Legend Double Dagger -1.9 -4.3 84 13 4 16.1 101.19   -3 LegendNANA
03:00 Legend Double Dagger -1.7 -4.6 81 19 4 16.1 101.24   -3 LegendNANA
04:00 Legend Double Dagger -1.7 -4.4 82   0 16.1 101.29     LegendNANA
05:00 Legend Double Dagger -1.1 -4.5 78 18 9 16.1 101.34   -4 LegendNANA
06:00 Legend Double Dagger -1.1 -4.5 78 31 5 16.1 101.41   -3 LegendNANA
07:00 Legend Double Dagger -1.1 -3.7 83 10 4 16.1 101.48   -2 LegendNANA
08:00 Legend Double Dagger -0.6 -3.6 80   0 16.1 101.53     LegendNANA
09:00 Legend Double Dagger -0.3 -3.3 80 14 4 16.1 101.59   -2 LegendNANA
10:00 Legend Double Dagger -0.1 -3.5 78   0 16.1 101.62     LegendNANA
11:00 Legend Double Dagger 0.0 -3.8 75   0 16.1 101.64     LegendNANA
12:00 Legend Double Dagger -0.4 -2.1 88 4 9 11.3 101.69   -4 LegendNANA
13:00 Legend Double Dagger -0.7 -1.7 93 LegendMM 4 14.5 101.73   -2 LegendNANA
14:00 Legend Double Dagger -1.0 -1.6 95 6 8 4.8 101.77   -4 Snow
15:00 Legend Double Dagger -1.2 -1.6 97 6 5 2.4 101.80   -3 Snow
16:00 Legend Double Dagger -1.0 -2.1 92 2 8 14.5 101.84   -4 Snow
17:00 Legend Double Dagger -0.9 -3.1 85 7 5 16.1 101.82   -3 Snow
18:00 Legend Double Dagger -1.1 -2.8 88 6 5 16.1 101.80   -3 Snow
19:00 Legend Double Dagger -1.5 -2.9 91 12 5 16.1 101.78   -3 LegendNANA
20:00 Legend Double Dagger -1.4 -3.2 88   0 16.1 101.78     LegendNANA
21:00 Legend Double Dagger -2.2 -3.8 89 14 8 16.1 101.75   -5 LegendNANA
22:00 Legend Double Dagger -1.6 -3.3 88 19 9 16.1 101.70   -5 LegendNANA
23:00 Legend Double Dagger -2.5 -4.7 85 16 5 16.1 101.66   -4 LegendNANA

Notes on Data Quality.

Legend

  • E = Estimated
  • M = Missing
  • NA = Not Available
  • ‡ = Partner data that is not subject to review by the National Climate Archives
Date modified: